This is the latest recevied weather packets stored in our database for station/object YT1XN-8. If no packets are shown the sender has not sent any weather packets the latest 10 day(s).
| Time | Temp. | Humidity | Pressure | Rain* | Wind** | Luminosity | Snow |
|---|---|---|---|---|---|---|---|
| 1777120900 | 25° C | 40% | 1015.5 hPa | 0 mm | - | - | - |
| 1777120241 | 25° C | 38% | 1015.8 hPa | 0 mm | - | - | - |
| 1777119580 | 25.56° C | 36% | 1016 hPa | 0 mm | - | - | - |
| 1777118920 | 25° C | 42% | 1016.1 hPa | 0 mm | - | - | - |
| 1777118444 | 24.44° C | 43% | 1016.2 hPa | 0 mm | - | - | - |
| 1777118261 | 24.44° C | 38% | 1016.2 hPa | 0 mm | - | - | - |
| 1777117600 | 25° C | 38% | 1016.2 hPa | 0 mm | - | - | - |
| 1777116940 | 25° C | 41% | 1016.3 hPa | 0 mm | - | - | - |
| 1777116644 | 24.44° C | 43% | 1016.4 hPa | 0 mm | - | - | - |
| 1777116280 | 24.44° C | 38% | 1016.4 hPa | 0 mm | - | - | - |
| 1777115620 | 24.44° C | 41% | 1016.5 hPa | 0 mm | - | - | - |
| 1777114960 | 23.89° C | 42% | 1016.5 hPa | 0 mm | - | - | - |
| 1777114300 | 23.89° C | 43% | 1016.6 hPa | 0 mm | - | - | - |
| 1777114244 | 23.89° C | 45% | 1016.6 hPa | 0 mm | - | - | - |
| 1777113640 | 23.89° C | 44% | 1016.6 hPa | 0 mm | - | - | - |
| 1777112980 | 23.89° C | 45% | 1016.8 hPa | 0 mm | - | - | - |
| 1777112441 | 23.89° C | 43% | 1017 hPa | 0 mm | - | - | - |
| 1777112320 | 23.89° C | 43% | 1016.9 hPa | 0 mm | - | - | - |
| 1777111660 | 23.89° C | 45% | 1017.3 hPa | 0 mm | - | - | - |
| 1777111245 | 23.33° C | 46% | 1017.1 hPa | 0 mm | - | - | - |
| 1777111000 | 23.33° C | 47% | 1017.2 hPa | 0 mm | - | - | - |
| 1777110340 | 22.78° C | 49% | 1017.3 hPa | 0 mm | - | - | - |
| 1777110045 | 22.78° C | 45% | 1017.2 hPa | 0 mm | - | - | - |
| 1777109680 | 22.78° C | 45% | 1017.2 hPa | 0 mm | - | - | - |
| 1777109444 | 23.33° C | 46% | 1017.2 hPa | 0 mm | - | - | - |
* Rain latest hour (hover to see other rain measurements)
** Current wind speed in m/s (hover to see current wind gust speed)